Location: Unspecified
(0.0000°N, 0.0000°E)
Time: 05:24:45
(UTC+00:00)

A-11 Canister half - Visible Passes

Search period start: 25 May 2015 00:00
Search period end: 04 June 2015 00:00
Orbit: 1528 x 1682 km, 47.3° (Epoch: 23 May)

Date Brightness Start Highest point End Pass type
(mag) Time Alt. Az. Time Alt. Az. Time Alt. Az.
25 May 10.3 18:51:38 10° SSE 18:55:04 13° SE 18:55:26 13° SE visible
25 May 10.5 20:51:27 10° SW 20:53:51 20° SSW 20:53:51 20° SSW visible
26 May 10.3 18:30:52 10° SSE 18:33:25 12° SE 18:36:36 10° ESE visible
26 May 9.7 20:29:56 10° SSW 20:35:04 37° SSW 20:35:04 37° SSW visible
26 May11.522:53:24N22:53:24N22:33:31WSWvisible
27 May 8.9 20:08:26 10° SSW 20:16:50 62° SSE 20:16:50 62° SSE visible
27 May 11.2 22:31:20 - N 22:31:20 - N 22:15:22 10° W visible
28 May 8.8 19:46:57 10° SSW 19:56:13 61° SE 19:59:44 40° ENE visible
28 May 10.5 21:53:35 10° WSW 22:08:14 11° N 22:08:34 10° N visible
29 May 8.9 19:25:28 10° SSW 19:34:40 57° SE 19:43:45 10° NE visible
29 May 10.3 21:31:46 10° WSW 21:39:40 29° NW 21:47:15 10° N visible
30 May 9.0 19:03:59 10° SSW 19:13:08 53° SE 19:22:08 10° NE visible
30 May 10.3 21:09:58 10° WSW 21:18:06 32° NW 21:25:54 10° N visible
31 May 9.1 18:42:31 10° SSW 18:51:35 49° SE 19:00:30 10° ENE visible
31 May 10.2 20:48:12 10° WSW 20:56:32 34° NW 21:04:33 10° NNE visible
01 Jun 11.4 05:30:40 10° N 05:37:21 21° NE 05:44:42 10° E visible
01 Jun 9.2 18:21:04 10° SSW 18:30:01 46° SE 18:38:51 10° ENE visible
01 Jun 10.2 20:26:27 10° WSW 20:34:58 37° NW 20:43:11 10° NNE visible
02 Jun 11.5 05:09:27 10° N 05:15:43 20° NE 05:22:41 10° E visible
02 Jun 10.1 20:04:44 10° WSW 20:13:24 39° NW 20:21:48 10° NNE visible
03 Jun 11.5 04:48:17 10° N 04:54:05 18° NE 05:00:37 10° E visible
03 Jun 10.0 19:43:00 10° WSW 19:51:50 43° NW 20:00:24 10° NNE visible
